Torna al catalogo

SPACEVAN-002

AttivoComunicazioniSSO
NORAD 68424·PAYLOAD·🇫🇷 France

Lanciato Mar 30, 2026 da Vandenberg Space Force Base

Loading…

Prossimi Passaggi (prossime 24 ore)

TLE

AggiornatoSource: Space-Track

Epoca: Sep 14, 2026, 14:44 UTC

1 68424U 26067J   26257.61448175  .00005250  00000-0  24968-3 0  9997
2 68424  97.4614 214.8418 0003590  81.2156 278.9485 15.19613826 25513

Traccia SPACEVAN-002 in tempo reale con AllMySat

Download on the App Store